SCP
0 0 0 0 0 0 0 0 0 0 -0 -0 0 0 0 0 0 0 0 0 0 0 0 0 0 0 0 0 0 0 0 0 0 0 0 0 0 0 0 0 0 0 0 0
0 0 0 0 0 0 0 0 0 0 0 0 0 0 0 0 0 0 0 0 0 0 0 0 0 0 0 0 0 0 0 0 0 0 0 0 0 0 0 0 0 0 0 0
0 0 0 0 0 0 0 0 0 0 0 0 0 0 0 0 0 0 0 0 0 0 0 0 0 0 0 0 0 0 0 0 0 0 0 0 0 0 0 0 0 0 0 0
0 0 0 0 0 0 0 0 0 0 0 0 0 0 0 0 0 0 0 0 0 0 0 0 0 0 0 0 0 0 0 0 0 0 0 0 0 0 0 0 0 0 0 0
0 0 0 0 0 0 0 0 0 0 0 0 0 0 0 0 0 0 0 0 0 0 0 0 0 0 0 0 0 0 0 0 0 0 0 0 0 0 0 0 0 0 0 0
0 0 0 0 0 0 0 0 0 0 0 0 0 0 0 0 0 0 0 0 0 0 0 0 0 0 0 -0 0 0 0 0 0 0 0 0 0 0 0 0 0 0 0 0
0 0 0 0 0 0 0 0 0 0 0 0 0 0 0 0 0 0 0 0 0 0 0 0 0 0 -0 -0 -0 0 0 0 0 0 0 0 0 0 0 0 0 0 0 0
0 0 0 0 0 0 0 0 0 0 0 0 0 0 0 0 0 0 0 0 0 0 0 0 0 0 -0 -0 -0 0 0 0 0 0 0 0 0 0 0 0 0 0 0 0
0 0 0 0 0 0 0 0 0 0 0 0 0 0 0 0 0 0 0 0 0 0 0 0 0 0 0 0 -0 -0 0 0 0 0 0 0 0 0 0 0 0 0 0 0
0 0 0 0 0 0 0 0 0 0 0 0 0 0 0 0 0 0 0 0 0 0 0 0 0 0 0 0 0 0 0 0 0 0 0 0 0 0 0 0 0 0 0 0
0 0 0 0 0 0 0 0 0 0 0 0 0 0 0 0 0 0 0 0 0 0 0 0 0 0 0 0 0 0 0 0 0 0 0 0 0 0 0 0 0 0 0 0
0 0 0 0 0 0 0 0 0 0 0 0 0 0 0 0 0 0 0 0 0 0 0 0 0 0 0 0 0 0 0 0 0 0 0 0 0 0 0 0 0 0 0 0
0 0 0 0 0 0 0 0 0 0 0 0 0 0 0 0 0 0 0 0 0 0 0 0 0 0 0 0 0 0 0 0 0 0 0 0 0 0 0 0 0 0 0 0
0 0 0 0 0 0 0 0 0 0 0 0 0 0 0 0 0 0 0 0 0 0 0 0 0 0 0 0 0 0 0 0 0 0 0 0 0 0 0 0 0 0 0 0
0 0 0 0 0 0 0 0 0 0 0 0 0 0 0 0 0 0 0 0 0 0 0 0 0 0 0 0 0 0 0 0 0 0 0 0 0 0 0 0 0 0 0 0
0 0 0 0 0 0 0 0 0 0 0 0 0 0 0 0 0 0 0 0 0 0 0 0 0 0 0 0 0 0 0 0 0 0 0 0 0 0 0 0 0 0 0 0
0 0 0 0 0 0 0 0 0 0 0 0 0 0 0 0 0 0 0 0 0 0 0 0 0 0 0 0 0 0 0 0 0 0 0 0 0 0 0 0 0 0 0 0
0 0 0 0 0 0 0 0 0 0 0 0 0 0 0 0 0 0 0 0 -0 -0 0 0 0 0 0 0 0 0 0 0 0 0 0 0 0 0 0 0 0 0 0 0
0 0 0 0 0 0 0 0 0 0 0 0 0 0 0 0 0 0 0 -0 -0 -0 0 0 0 0 0 0 0 0 0 0 0 0 0 0 0 0 0 0 0 0 0 0
0 0 0 0 0 0 0 0 0 0 0 0 0 0 0 0 0 0 0 -0 -0 -0 -0 0 0 0 -0 0 0 0 0 0 0 0 0 0 0 0 0 0 0 0 0 0
0 0 0 0 0 0 0 0 0 0 0 0 0 0 0 0 0 0 0 -0 -0 -0 -0 -0 -0 -0 -0 0 0 0 0 0 0 0 0 0 0 0 0 0 0 0 0 0
0 0 0 0 0 0 0 0 0 0 0 0 0 0 0 0 0 0 0 -0 -0 0 0 -0 -0 -0 0 0 0 0 0 0 0 0 0 0 0 0 0 0 0 0 0 0
0 0 0 0 0 0 0 0 0 0 0 0 0 0 0 0 0 0 0 0 -0 0 0 -0 -0 -0 0 0 0 0 0 0 0 0 0 0 0 0 0 0 0 0 0 0
0 0 0 0 0 0 0 0 0 0 0 0 0 0 0 0 0 0 0 0 -0 -0 0 0 0 0 0 0 0 0 0 0 0 0 0 0 0 0 0 0 0 0 0 0
0 0 0 0 0 0 0 0 0 0 0 0 0 0 0 0 0 0 0 0 0 0 0 0 0 0 0 0 0 0 0 0 0 0 0 0 0 0 0 0 0 0 0 0
0 0 0 0 0 0 0 0 0 0 0 0 0 0 0 0 0 0 0 0 0 0 0 0 0 0 0 0 0 0 0 0 0 0 0 0 0 0 0 0 0 0 0 0
Wind_Speed
5 3 4 5 5 7 7 7 9 8 6 5 5 7 8 6 4 3 3 1 1 2 1 1 3 2 2 3 3 4 6 5 4 4 4 5 5 4 4 4 6 7 7 7
3 5 6 5 5 6 6 7 7 6 4 5 4 5 5 3 1 1 1 0 1 1 2 2 3 3 2 2 2 2 4 6 5 3 3 4 5 4 4 4 5 6 7 7
3 3 3 3 4 5 6 5 4 5 5 3 2 4 4 2 2 3 2 3 2 3 2 3 4 3 2 2 2 1 2 5 5 5 3 4 4 4 3 4 4 5 7 7
2 2 3 3 4 4 5 3 4 6 3 2 2 2 3 3 4 4 3 4 4 4 3 3 4 5 3 2 2 2 1 4 5 4 3 5 5 5 5 5 4 5 6 6
1 2 3 3 4 5 4 6 6 6 3 2 2 1 1 3 4 5 6 5 5 4 3 4 4 4 4 3 2 2 2 3 3 3 4 4 4 3 3 4 5 4 4 6
2 1 2 3 4 4 5 5 5 4 1 1 1 1 2 3 5 6 7 6 6 5 4 5 4 4 4 3 3 3 3 3 3 3 3 3 5 5 4 5 5 4 3 4
1 1 1 2 4 3 4 3 2 1 0 1 2 3 3 5 6 6 6 6 6 5 5 5 5 5 4 4 4 4 4 3 3 3 3 2 2 4 4 4 5 4 4 3
1 0 1 1 2 3 3 2 2 2 1 1 3 3 3 6 7 7 7 7 7 7 7 7 7 6 5 5 5 4 4 3 3 3 3 2 1 2 2 2 3 3 3 3
1 1 1 1 1 3 3 2 2 1 1 1 1 2 3 7 8 8 8 9 8 8 8 8 8 7 6 6 5 5 4 3 3 3 3 2 2 2 2 2 2 2 2 2
2 1 1 1 1 1 2 3 3 2 1 1 1 2 2 4 5 7 8 8 8 8 9 9 8 8 7 6 6 6 5 4 4 3 3 2 2 1 1 2 2 2 2 2
1 0 1 0 1 2 2 2 3 2 1 1 1 3 4 3 4 5 7 7 7 8 8 8 7 7 7 7 7 7 6 5 5 4 3 3 2 2 1 1 1 1 2 2
2 1 1 1 2 1 2 2 2 2 3 1 2 2 5 5 5 6 7 7 7 8 7 7 7 7 8 8 8 7 6 6 5 5 4 3 2 2 2 1 1 0 1 1
2 1 2 0 0 1 1 2 3 2 2 2 2 2 4 5 6 6 6 7 7 8 8 8 8 8 8 8 7 7 7 6 6 5 5 4 3 3 2 2 2 1 1 1
2 1 1 1 1 1 1 1 2 1 1 1 2 3 2 4 5 5 6 6 6 7 8 8 8 7 7 7 7 7 7 6 5 5 5 5 5 4 3 3 2 2 1 1
2 1 1 1 2 1 1 1 1 0 1 1 2 2 2 2 3 3 5 6 6 7 8 8 8 7 7 7 7 7 6 6 5 5 5 5 5 4 4 3 3 2 2 2
1 1 2 2 1 1 1 2 1 1 1 1 1 2 3 4 4 4 4 5 6 6 7 7 8 7 7 7 6 6 6 6 5 5 4 4 4 4 4 4 3 2 2 2
1 1 1 1 1 2 3 3 3 2 2 2 1 1 3 2 2 2 3 4 5 5 6 6 6 6 6 6 6 6 5 5 5 4 4 4 4 4 4 3 3 3 3 2
1 1 1 1 2 2 2 1 1 2 1 2 2 2 2 2 2 2 3 4 4 5 5 5 5 5 5 5 5 5 5 5 5 5 5 4 4 4 4 3 3 3 3 2
2 1 1 1 2 3 2 2 2 2 1 3 3 2 2 2 1 2 4 4 3 3 4 4 4 4 4 5 5 5 5 5 4 5 5 5 4 4 4 4 4 4 3 3
2 2 1 1 2 3 2 4 2 2 2 3 4 3 3 2 0 1 2 3 3 3 3 3 4 4 4 5 5 5 5 5 5 5 5 5 5 4 4 3 3 3 3 3
2 2 2 3 3 3 3 4 3 2 3 3 3 3 3 2 1 1 2 2 2 2 2 3 3 3 4 5 5 5 5 5 5 5 5 4 4 4 4 3 3 3 3 3
4 4 4 3 4 6 5 5 4 2 3 3 3 3 3 2 2 2 2 1 1 2 2 3 3 3 3 4 4 5 5 5 5 5 5 5 4 4 3 3 3 3 3 3
4 3 2 4 4 2 4 3 2 3 3 3 3 2 3 2 1 1 1 1 1 2 2 2 3 3 3 3 3 4 5 5 5 5 5 5 5 4 3 3 3 3 2 2
3 2 1 3 3 4 4 3 2 3 3 3 3 3 3 2 1 0 0 1 1 1 2 2 3 4 4 4 4 4 5 5 5 5 5 5 5 4 3 3 2 2 2 2
4 5 3 4 3 2 4 5 4 4 4 4 3 2 2 2 1 0 0 1 1 1 2 2 3 4 4 4 4 5 5 5 5 5 5 5 4 4 3 3 3 3 3 3
6 7 7 6 5 5 4 5 6 5 5 4 3 2 2 2 1 0 1 1 1 1 2 2 3 4 5 5 5 5 4 4 5 5 4 4 4 4 3 3 3 4 4 5
Wind_Direction
199 227 248 259 260 274 284 281 284 291 291 289 277 281 288 284 269 266 276 226 211 242 234 123 127 124 130 150 157 159 165 177 169 163 163 166 161 155 158 162 164 164 164 163
230 249 274 294 299 289 276 279 284 299 303 293 282 296 299 305 292 260 272 156 64 82 54 62 87 100 113 137 138 173 167 165 164 167 173 168 156 155 159 160 169 170 168 168
240 286 314 305 304 298 290 277 289 298 309 266 289 315 341 24 48 48 45 59 60 99 94 98 98 100 103 112 121 156 177 173 159 160 161 156 144 138 157 165 166 172 168 169
271 297 307 303 305 304 298 312 303 300 317 306 301 324 342 19 45 50 63 69 61 58 78 95 97 97 97 92 100 107 171 169 155 147 157 165 158 164 175 170 162 168 168 169
288 350 328 308 313 319 295 310 292 279 279 290 269 226 337 32 32 35 49 66 62 57 81 91 84 88 84 74 82 108 132 137 128 140 163 171 162 158 160 154 157 165 167 169
250 322 329 308 306 294 294 296 289 268 252 295 292 127 31 18 16 29 40 43 42 40 57 71 71 79 76 65 60 76 109 111 111 134 150 168 171 156 162 157 164 165 163 166
237 180 184 286 310 329 329 336 343 1 54 357 14 61 47 24 26 35 41 41 36 34 44 49 50 53 57 55 51 68 82 87 91 112 125 149 167 152 161 165 167 168 171 176
282 199 120 346 345 322 309 322 345 340 10 16 20 47 51 34 34 43 49 47 42 36 39 39 39 40 43 49 49 61 66 76 80 86 83 92 89 113 131 140 149 168 182 180
342 11 100 79 332 321 323 332 303 281 289 77 90 93 73 32 37 41 44 43 38 35 36 36 37 36 42 48 44 47 51 65 73 86 92 76 79 95 122 131 130 154 177 178
341 307 267 145 249 268 301 308 314 328 14 39 93 69 26 26 32 38 41 41 36 35 35 37 36 38 42 43 42 44 47 56 58 58 68 70 74 81 110 135 155 170 186 184
281 286 298 168 55 348 345 325 314 305 332 49 72 47 34 64 55 48 45 45 40 38 35 34 35 36 38 38 37 37 38 42 42 41 38 41 51 62 67 117 175 186 196 199
306 306 278 211 108 349 320 334 329 350 336 357 95 60 39 66 62 57 51 45 43 41 36 34 37 37 36 32 30 29 32 35 31 29 25 27 30 52 58 40 49 151 214 212
318 307 320 238 121 313 308 336 326 324 348 9 75 101 47 62 58 53 51 46 42 37 34 35 34 35 32 27 25 24 26 25 23 24 23 22 27 29 37 23 14 358 304 258
307 311 350 348 352 338 302 333 342 5 43 34 88 119 64 54 53 48 46 44 43 38 34 32 31 32 29 24 23 21 19 18 18 20 20 18 15 15 16 12 0 348 336 314
287 311 350 328 326 339 327 326 6 347 275 141 108 99 111 85 62 53 47 40 38 34 33 31 26 24 22 20 17 15 12 9 11 20 19 15 10 9 9 7 357 348 341 316
260 284 304 286 238 301 320 306 237 247 252 171 113 68 86 85 68 55 48 40 36 31 28 25 22 19 17 13 10 9 6 2 6 17 12 9 8 7 2 357 350 341 324 307
242 243 285 279 249 299 277 238 202 173 154 164 189 147 97 84 70 67 62 51 38 29 22 19 16 11 8 5 2 1 356 355 1 5 5 6 1 0 354 350 348 340 327 317
287 291 278 294 309 259 198 59 133 166 182 156 131 119 99 77 60 72 71 59 39 22 13 11 5 1 359 359 358 353 348 354 357 358 0 359 354 348 342 342 338 330 322 315
328 297 291 282 281 257 167 166 153 164 227 173 160 135 93 66 68 67 60 55 42 23 8 0 360 356 355 356 351 349 349 351 353 352 349 343 338 335 337 340 333 326 323 318
290 283 274 266 266 262 159 129 99 98 233 149 150 149 128 95 142 221 56 45 34 27 16 359 356 2 360 351 347 349 347 346 343 341 336 330 329 327 326 325 321 320 316 308
187 209 217 238 254 268 128 135 140 175 214 137 135 141 142 151 155 104 67 49 37 23 9 0 3 1 347 342 346 344 341 336 330 332 331 329 329 323 318 323 320 319 320 319
188 188 197 195 228 242 147 150 186 180 116 120 115 120 124 106 87 76 66 51 23 6 5 6 360 344 337 342 346 338 332 329 332 332 330 328 327 323 322 320 317 320 325 323
210 203 200 201 210 157 154 157 133 114 125 125 123 115 123 127 125 95 58 23 3 358 354 355 345 330 331 341 343 331 325 328 330 331 327 324 322 317 317 316 313 316 317 308
214 155 231 266 237 179 174 161 147 131 132 123 119 118 122 135 136 125 33 354 341 345 345 341 334 325 324 332 334 324 323 325 323 324 321 316 312 313 315 310 305 302 299 302
205 166 208 247 237 177 199 185 170 142 130 125 120 118 126 131 149 192 274 304 323 334 333 332 317 312 314 323 325 325 325 327 320 314 311 311 310 311 314 312 302 298 287 280
196 183 189 218 200 182 198 170 157 155 162 157 147 141 135 142 175 196 279 303 322 321 319 313 310 313 313 318 319 322 322 321 316 311 310 310 310 309 308 310 317 325 307 311